Year,Month,Day,Hour,Minute,Value (Times are PST for windgust in km/hr)
2017,05,24,00,00,16.10
2017,05,24,00,01,12.90
2017,05,24,00,02,11.30
2017,05,24,00,03,12.90
2017,05,24,00,04,24.20
2017,05,24,00,05,14.50
2017,05,24,00,06,25.70
2017,05,24,00,07,19.30
2017,05,24,00,08,9.60
2017,05,24,00,09,17.70
2017,05,24,00,10,20.90
2017,05,24,00,11,11.30
2017,05,24,00,12,12.90
2017,05,24,00,13,9.60
2017,05,24,00,14,17.70
2017,05,24,00,15,14.50
2017,05,24,00,16,20.90
2017,05,24,00,17,19.30
2017,05,24,00,18,17.70
2017,05,24,00,19,16.10
2017,05,24,00,20,17.70
2017,05,24,00,21,12.90
2017,05,24,00,22,14.50
2017,05,24,00,23,11.30
2017,05,24,00,24,8.10
2017,05,24,00,25,9.60
2017,05,24,00,26,6.40
2017,05,24,00,27,8.10
2017,05,24,00,28,14.50
2017,05,24,00,29,9.60
2017,05,24,00,30,6.40
2017,05,24,00,31,11.30
2017,05,24,00,32,14.50
2017,05,24,00,33,14.50
2017,05,24,00,34,11.30
2017,05,24,00,35,8.10
2017,05,24,00,36,6.40
2017,05,24,00,37,8.10
2017,05,24,00,38,9.60
2017,05,24,00,39,4.80
2017,05,24,00,40,6.40
2017,05,24,00,41,11.30
2017,05,24,00,42,9.60
2017,05,24,00,43,9.60
2017,05,24,00,44,9.60
2017,05,24,00,45,16.10
2017,05,24,00,46,12.90
2017,05,24,00,47,16.10
2017,05,24,00,48,14.50
2017,05,24,00,49,17.70
2017,05,24,00,50,16.10
2017,05,24,00,51,9.60
2017,05,24,00,52,17.70
2017,05,24,00,53,14.50
2017,05,24,00,54,17.70
2017,05,24,00,55,11.30
2017,05,24,00,56,12.90
2017,05,24,00,57,12.90
2017,05,24,00,58,11.30
2017,05,24,00,59,20.90
2017,05,24,01,00,12.90
2017,05,24,01,01,19.30
2017,05,24,01,02,16.10
2017,05,24,01,03,16.10
2017,05,24,01,04,8.10
2017,05,24,01,05,14.50
2017,05,24,01,06,14.50
2017,05,24,01,07,12.90
2017,05,24,01,08,14.50
2017,05,24,01,09,17.70
2017,05,24,01,10,19.30
2017,05,24,01,11,16.10
2017,05,24,01,12,9.60
2017,05,24,01,13,16.10
2017,05,24,01,14,14.50
2017,05,24,01,15,11.30
2017,05,24,01,16,16.10
2017,05,24,01,17,9.60
2017,05,24,01,18,12.90
2017,05,24,01,19,12.90
2017,05,24,01,20,9.60
2017,05,24,01,21,12.90
2017,05,24,01,22,8.10
2017,05,24,01,23,11.30
2017,05,24,01,24,12.90
2017,05,24,01,25,11.30
2017,05,24,01,26,9.60
2017,05,24,01,27,14.50
2017,05,24,01,28,14.50
2017,05,24,01,29,14.50
2017,05,24,01,30,11.30
2017,05,24,01,31,11.30
2017,05,24,01,32,16.10
2017,05,24,01,33,11.30
2017,05,24,01,34,17.70
2017,05,24,01,35,17.70
2017,05,24,01,36,12.90
2017,05,24,01,37,16.10
2017,05,24,01,38,12.90
2017,05,24,01,39,14.50
2017,05,24,01,40,14.50
2017,05,24,01,41,17.70
2017,05,24,01,42,17.70
2017,05,24,01,43,20.90
2017,05,24,01,44,16.10
2017,05,24,01,45,14.50
2017,05,24,01,46,19.30
2017,05,24,01,47,27.40
2017,05,24,01,48,17.70
2017,05,24,01,49,14.50
2017,05,24,01,50,19.30
2017,05,24,01,51,14.50
2017,05,24,01,52,14.50
2017,05,24,01,53,16.10
2017,05,24,01,54,16.10
2017,05,24,01,55,16.10
2017,05,24,01,56,20.90
2017,05,24,01,57,17.70
2017,05,24,01,58,16.10
2017,05,24,01,59,11.30
2017,05,24,02,00,24.20
2017,05,24,02,01,17.70
2017,05,24,02,02,11.30
2017,05,24,02,03,14.50
2017,05,24,02,04,22.50
2017,05,24,02,05,12.90
2017,05,24,02,06,14.50
2017,05,24,02,07,11.30
2017,05,24,02,08,14.50
2017,05,24,02,09,12.90
2017,05,24,02,10,9.60
2017,05,24,02,11,11.30
2017,05,24,02,12,14.50
2017,05,24,02,13,14.50
2017,05,24,02,14,11.30
2017,05,24,02,15,14.50
2017,05,24,02,16,11.30
2017,05,24,02,17,11.30
2017,05,24,02,18,22.50
2017,05,24,02,19,16.10
2017,05,24,02,20,19.30
2017,05,24,02,21,19.30
2017,05,24,02,22,19.30
2017,05,24,02,23,12.90
2017,05,24,02,24,12.90
2017,05,24,02,25,17.70
2017,05,24,02,26,12.90
2017,05,24,02,27,12.90
2017,05,24,02,28,14.50
2017,05,24,02,29,12.90
2017,05,24,02,30,14.50
2017,05,24,02,31,8.10
2017,05,24,02,32,11.30
2017,05,24,02,33,11.30
2017,05,24,02,34,14.50
2017,05,24,02,35,17.70
2017,05,24,02,36,14.50
2017,05,24,02,37,14.50
2017,05,24,02,38,11.30
2017,05,24,02,39,14.50
2017,05,24,02,40,12.90
2017,05,24,02,41,8.10
2017,05,24,02,42,11.30
2017,05,24,02,43,9.60
2017,05,24,02,44,8.10
2017,05,24,02,45,8.10
2017,05,24,02,46,6.40
2017,05,24,02,47,9.60
2017,05,24,02,48,14.50
2017,05,24,02,49,4.80
2017,05,24,02,50,17.70
2017,05,24,02,51,9.60
2017,05,24,02,52,17.70
2017,05,24,02,53,16.10
2017,05,24,02,54,8.10
2017,05,24,02,55,8.10
2017,05,24,02,56,11.30
2017,05,24,02,57,12.90
2017,05,24,02,58,11.30
2017,05,24,02,59,9.60
2017,05,24,03,00,8.10
2017,05,24,03,01,12.90
2017,05,24,03,02,16.10
2017,05,24,03,03,12.90
2017,05,24,03,04,16.10
2017,05,24,03,05,12.90
2017,05,24,03,06,9.60
2017,05,24,03,07,11.30
2017,05,24,03,08,11.30
2017,05,24,03,09,12.90
2017,05,24,03,10,8.10
2017,05,24,03,11,8.10
2017,05,24,03,12,8.10
2017,05,24,03,13,4.80
2017,05,24,03,14,9.60
2017,05,24,03,15,19.30
2017,05,24,03,16,8.10
2017,05,24,03,17,1.60
2017,05,24,03,18,11.30
2017,05,24,03,19,9.60
2017,05,24,03,20,9.60
2017,05,24,03,21,11.30
2017,05,24,03,22,14.50
2017,05,24,03,23,9.60
2017,05,24,03,24,8.10
2017,05,24,03,25,6.40
2017,05,24,03,26,9.60
2017,05,24,03,27,12.90
2017,05,24,03,28,8.10
2017,05,24,03,29,12.90
2017,05,24,03,30,9.60
2017,05,24,03,31,6.40
2017,05,24,03,32,8.10
2017,05,24,03,33,6.40
2017,05,24,03,34,9.60
2017,05,24,03,35,16.10
2017,05,24,03,36,8.10
2017,05,24,03,37,11.30
2017,05,24,03,38,19.30
2017,05,24,03,39,16.10
2017,05,24,03,40,17.70
2017,05,24,03,41,11.30
2017,05,24,03,42,16.10
2017,05,24,03,43,14.50
2017,05,24,03,44,11.30
2017,05,24,03,45,11.30
2017,05,24,03,46,9.60
2017,05,24,03,47,11.30
2017,05,24,03,48,17.70
2017,05,24,03,49,16.10
2017,05,24,03,50,20.90
2017,05,24,03,51,12.90
2017,05,24,03,52,24.20
2017,05,24,03,53,14.50
2017,05,24,03,54,17.70
2017,05,24,03,55,19.30
2017,05,24,03,56,17.70
2017,05,24,03,57,24.20
2017,05,24,03,58,8.10
2017,05,24,03,59,14.50
2017,05,24,04,00,11.30
2017,05,24,04,01,11.30
2017,05,24,04,02,16.10
2017,05,24,04,03,12.90
2017,05,24,04,04,11.30
2017,05,24,04,05,16.10
2017,05,24,04,06,25.70
2017,05,24,04,07,22.50
2017,05,24,04,08,11.30
2017,05,24,04,09,11.30
2017,05,24,04,10,16.10
2017,05,24,04,11,22.50
2017,05,24,04,12,16.10
2017,05,24,04,13,11.30
2017,05,24,04,14,12.90
2017,05,24,04,15,14.50
2017,05,24,04,16,17.70
2017,05,24,04,17,9.60
2017,05,24,04,18,14.50
2017,05,24,04,19,14.50
2017,05,24,04,20,16.10
2017,05,24,04,21,12.90
2017,05,24,04,22,12.90
2017,05,24,04,23,17.70
2017,05,24,04,24,17.70
2017,05,24,04,25,22.50
2017,05,24,04,26,17.70
2017,05,24,04,27,12.90
2017,05,24,04,28,16.10
2017,05,24,04,29,17.70
2017,05,24,04,30,24.20
2017,05,24,04,31,22.50
2017,05,24,04,32,25.70
2017,05,24,04,33,17.70
2017,05,24,04,34,24.20
2017,05,24,04,35,20.90
2017,05,24,04,36,11.30
2017,05,24,04,37,22.50
2017,05,24,04,38,19.30
2017,05,24,04,39,17.70
2017,05,24,04,40,17.70
2017,05,24,04,41,12.90
2017,05,24,04,42,19.30
2017,05,24,04,43,17.70
2017,05,24,04,44,24.20
2017,05,24,04,45,12.90
2017,05,24,04,46,17.70
2017,05,24,04,47,16.10
2017,05,24,04,48,16.10
2017,05,24,04,49,17.70
2017,05,24,04,50,16.10
2017,05,24,04,51,16.10
2017,05,24,04,52,22.50
2017,05,24,04,53,12.90
2017,05,24,04,54,17.70
2017,05,24,04,55,20.90
2017,05,24,04,56,12.90
2017,05,24,04,57,14.50
2017,05,24,04,58,12.90
2017,05,24,04,59,14.50
2017,05,24,05,00,17.70
2017,05,24,05,01,19.30
2017,05,24,05,02,12.90
2017,05,24,05,03,20.90
2017,05,24,05,04,17.70
2017,05,24,05,05,14.50
2017,05,24,05,06,19.30
2017,05,24,05,07,19.30
2017,05,24,05,08,9.60
2017,05,24,05,09,20.90
2017,05,24,05,10,9.60
2017,05,24,05,11,11.30
2017,05,24,05,12,12.90
2017,05,24,05,13,11.30
2017,05,24,05,14,16.10
2017,05,24,05,15,17.70
2017,05,24,05,16,14.50
2017,05,24,05,17,12.90
2017,05,24,05,18,9.60
2017,05,24,05,19,11.30
2017,05,24,05,20,14.50
2017,05,24,05,21,14.50
2017,05,24,05,22,16.10
2017,05,24,05,23,20.90
2017,05,24,05,24,11.30
2017,05,24,05,25,16.10
2017,05,24,05,26,9.60
2017,05,24,05,27,12.90
2017,05,24,05,28,12.90
2017,05,24,05,29,20.90
2017,05,24,05,30,17.70
2017,05,24,05,31,9.60
2017,05,24,05,32,9.60
2017,05,24,05,33,8.10
2017,05,24,05,34,19.30
2017,05,24,05,35,11.30
2017,05,24,05,36,14.50
2017,05,24,05,37,11.30
2017,05,24,05,38,11.30
2017,05,24,05,39,8.10
2017,05,24,05,40,8.10
2017,05,24,05,41,9.60
2017,05,24,05,42,14.50
2017,05,24,05,43,19.30
2017,05,24,05,44,14.50
2017,05,24,05,45,16.10
2017,05,24,05,46,12.90
2017,05,24,05,47,12.90
2017,05,24,05,48,12.90
2017,05,24,05,49,17.70
2017,05,24,05,50,16.10
2017,05,24,05,51,11.30
2017,05,24,05,52,16.10
2017,05,24,05,53,12.90
2017,05,24,05,54,11.30
2017,05,24,05,55,8.10
2017,05,24,05,56,9.60
2017,05,24,05,57,16.10
2017,05,24,05,58,4.80
2017,05,24,05,59,9.60
2017,05,24,06,00,8.10
2017,05,24,06,01,6.40
2017,05,24,06,02,17.70
2017,05,24,06,03,9.60
2017,05,24,06,04,9.60
2017,05,24,06,05,9.60
2017,05,24,06,06,16.10
2017,05,24,06,07,11.30
2017,05,24,06,08,9.60
2017,05,24,06,09,12.90
2017,05,24,06,10,19.30
2017,05,24,06,11,14.50
2017,05,24,06,12,17.70
2017,05,24,06,13,9.60
2017,05,24,06,14,11.30
2017,05,24,06,15,24.20
2017,05,24,06,16,24.20
2017,05,24,06,17,22.50
2017,05,24,06,18,12.90
2017,05,24,06,19,9.60
2017,05,24,06,20,6.40
2017,05,24,06,21,14.50
2017,05,24,06,22,11.30
2017,05,24,06,23,16.10
2017,05,24,06,24,14.50
2017,05,24,06,25,4.80
2017,05,24,06,26,6.40
2017,05,24,06,27,8.10
2017,05,24,06,28,12.90
2017,05,24,06,29,16.10
2017,05,24,06,30,3.20
2017,05,24,06,31,8.10
2017,05,24,06,32,8.10
2017,05,24,06,33,11.30
2017,05,24,06,34,6.40
2017,05,24,06,35,6.40
2017,05,24,06,36,9.60
2017,05,24,06,37,8.10
2017,05,24,06,38,12.90
2017,05,24,06,39,9.60
2017,05,24,06,40,4.80
2017,05,24,06,41,3.20
2017,05,24,06,42,6.40
2017,05,24,06,43,4.80
2017,05,24,06,44,3.20
2017,05,24,06,46,3.20
2017,05,24,06,47,1.60
2017,05,24,06,48,9.60
2017,05,24,06,49,4.80
2017,05,24,06,50,4.80
2017,05,24,06,51,4.80
2017,05,24,06,52,3.20
2017,05,24,06,53,3.20
2017,05,24,06,54,8.10
2017,05,24,06,55,3.20
2017,05,24,06,56,9.60
2017,05,24,06,57,8.10
2017,05,24,06,58,3.20
2017,05,24,06,59,6.40
2017,05,24,07,00,6.40
2017,05,24,07,01,4.80
2017,05,24,07,02,8.10
2017,05,24,07,03,6.40
2017,05,24,07,04,4.80
2017,05,24,07,05,3.20
2017,05,24,07,06,3.20
2017,05,24,07,07,6.40
2017,05,24,07,08,8.10
2017,05,24,07,09,8.10
2017,05,24,07,10,9.60
2017,05,24,07,11,6.40
2017,05,24,07,12,8.10
2017,05,24,07,13,9.60
2017,05,24,07,14,9.60
2017,05,24,07,15,9.60
2017,05,24,07,16,11.30
2017,05,24,07,17,8.10
2017,05,24,07,18,6.40
2017,05,24,07,19,9.60
2017,05,24,07,20,12.90
2017,05,24,07,21,11.30
2017,05,24,07,22,8.10
2017,05,24,07,23,4.80
2017,05,24,07,24,8.10
2017,05,24,07,25,9.60
2017,05,24,07,26,4.80
2017,05,24,07,27,1.60
2017,05,24,07,28,3.20
2017,05,24,07,29,6.40
2017,05,24,07,30,9.60
2017,05,24,07,31,9.60
2017,05,24,07,32,4.80
2017,05,24,07,33,6.40
2017,05,24,07,34,6.40
2017,05,24,07,35,12.90
2017,05,24,07,36,11.30
2017,05,24,07,37,11.30
2017,05,24,07,38,6.40
2017,05,24,07,39,6.40
2017,05,24,07,40,6.40
2017,05,24,07,41,14.50
2017,05,24,07,42,4.80
2017,05,24,07,43,6.40
2017,05,24,07,44,8.10
2017,05,24,07,45,17.70
2017,05,24,07,46,12.90
2017,05,24,07,47,6.40
2017,05,24,07,48,4.80
2017,05,24,07,49,9.60
2017,05,24,07,50,17.70
2017,05,24,07,51,16.10
2017,05,24,07,52,12.90
2017,05,24,07,53,11.30
2017,05,24,07,54,19.30
2017,05,24,07,55,9.60
2017,05,24,07,56,14.50
2017,05,24,07,57,6.40
2017,05,24,07,58,11.30
2017,05,24,07,59,11.30
2017,05,24,08,00,12.90
2017,05,24,08,01,12.90
2017,05,24,08,02,16.10
2017,05,24,08,03,17.70
2017,05,24,08,04,19.30
2017,05,24,08,05,12.90
2017,05,24,08,06,19.30
2017,05,24,08,07,9.60
2017,05,24,08,08,12.90
2017,05,24,08,09,9.60
2017,05,24,08,10,8.10
2017,05,24,08,11,16.10
2017,05,24,08,12,6.40
2017,05,24,08,13,6.40
2017,05,24,08,14,8.10
2017,05,24,08,15,9.60
2017,05,24,08,16,6.40
2017,05,24,08,17,4.80
2017,05,24,08,18,3.20
2017,05,24,08,19,4.80
2017,05,24,08,20,8.10
2017,05,24,08,21,12.90
2017,05,24,08,22,6.40
2017,05,24,08,23,11.30
2017,05,24,08,24,12.90
2017,05,24,08,25,6.40
2017,05,24,08,26,14.50
2017,05,24,08,27,12.90
2017,05,24,08,28,8.10
2017,05,24,08,29,14.50
2017,05,24,08,30,14.50
2017,05,24,08,31,17.70
2017,05,24,08,32,11.30
2017,05,24,08,33,8.10
2017,05,24,08,34,9.60
2017,05,24,08,35,9.60
2017,05,24,08,36,11.30
2017,05,24,08,37,12.90
2017,05,24,08,38,12.90
2017,05,24,08,39,8.10
2017,05,24,08,40,8.10
2017,05,24,08,41,6.40
2017,05,24,08,42,11.30
2017,05,24,08,43,9.60
2017,05,24,08,44,11.30
2017,05,24,08,45,12.90
2017,05,24,08,46,12.90
2017,05,24,08,47,11.30
2017,05,24,08,48,11.30
2017,05,24,08,49,9.60
2017,05,24,08,50,4.80
2017,05,24,08,51,11.30
2017,05,24,08,52,11.30
2017,05,24,08,53,9.60
2017,05,24,08,54,3.20
2017,05,24,08,55,3.20
2017,05,24,08,56,3.20
2017,05,24,08,57,6.40
2017,05,24,08,58,9.60
2017,05,24,08,59,8.10
2017,05,24,09,00,8.10
2017,05,24,09,01,14.50
2017,05,24,09,02,14.50
2017,05,24,09,03,16.10
2017,05,24,09,04,11.30
2017,05,24,09,05,9.60
2017,05,24,09,06,11.30
2017,05,24,09,07,4.80
2017,05,24,09,08,14.50
2017,05,24,09,09,3.20
2017,05,24,09,10,14.50
2017,05,24,09,11,14.50
2017,05,24,09,12,11.30
2017,05,24,09,13,14.50
2017,05,24,09,14,19.30
2017,05,24,09,15,11.30
2017,05,24,09,16,14.50
2017,05,24,09,17,4.80
2017,05,24,09,18,9.60
2017,05,24,09,19,9.60
2017,05,24,09,20,12.90
2017,05,24,09,21,11.30
2017,05,24,09,22,11.30
2017,05,24,09,23,8.10
2017,05,24,09,24,4.80
2017,05,24,09,25,6.40
2017,05,24,09,26,4.80
2017,05,24,09,27,4.80
2017,05,24,09,28,6.40
2017,05,24,09,29,14.50
2017,05,24,09,30,8.10
2017,05,24,09,31,12.90
2017,05,24,09,32,4.80
2017,05,24,09,33,8.10
2017,05,24,09,34,8.10
2017,05,24,09,35,8.10
2017,05,24,09,36,8.10
2017,05,24,09,37,6.40
2017,05,24,09,38,1.60
2017,05,24,09,39,4.80
2017,05,24,09,40,9.60
2017,05,24,09,41,8.10
2017,05,24,09,42,6.40
2017,05,24,09,43,3.20
2017,05,24,09,44,3.20
2017,05,24,09,45,3.20
2017,05,24,09,46,8.10
2017,05,24,09,47,6.40
2017,05,24,09,48,3.20
2017,05,24,09,49,6.40
2017,05,24,09,50,8.10
2017,05,24,09,51,9.60
2017,05,24,09,52,8.10
2017,05,24,09,53,8.10
2017,05,24,09,54,11.30
2017,05,24,09,55,8.10
2017,05,24,09,56,12.90
2017,05,24,09,57,11.30
2017,05,24,09,58,9.60
2017,05,24,09,59,11.30
2017,05,24,10,00,12.90
2017,05,24,10,01,9.60
2017,05,24,10,02,8.10
2017,05,24,10,03,9.60
2017,05,24,10,04,9.60
2017,05,24,10,05,6.40
2017,05,24,10,06,11.30
2017,05,24,10,07,9.60
2017,05,24,10,08,9.60
2017,05,24,10,09,11.30
2017,05,24,10,10,9.60
2017,05,24,10,11,8.10
2017,05,24,10,12,16.10
2017,05,24,10,13,9.60
2017,05,24,10,14,9.60
2017,05,24,10,15,6.40
2017,05,24,10,16,9.60
2017,05,24,10,17,14.50
2017,05,24,10,18,16.10
2017,05,24,10,19,17.70
2017,05,24,10,20,17.70
2017,05,24,10,21,11.30
2017,05,24,10,22,17.70
2017,05,24,10,23,17.70
2017,05,24,10,24,17.70
2017,05,24,10,25,14.50
2017,05,24,10,26,17.70
2017,05,24,10,27,12.90
2017,05,24,10,28,14.50
2017,05,24,10,29,16.10
2017,05,24,10,30,14.50
2017,05,24,10,31,9.60
2017,05,24,10,32,4.80
2017,05,24,10,33,8.10
2017,05,24,10,34,12.90
2017,05,24,10,35,19.30
2017,05,24,10,36,14.50
2017,05,24,10,37,11.30
2017,05,24,10,38,9.60
2017,05,24,10,39,9.60
2017,05,24,10,40,16.10
2017,05,24,10,41,16.10
2017,05,24,10,42,14.50
2017,05,24,10,43,9.60
2017,05,24,10,44,8.10
2017,05,24,10,45,8.10
2017,05,24,10,46,16.10
2017,05,24,10,47,16.10
2017,05,24,10,48,16.10
2017,05,24,10,49,14.50
2017,05,24,10,50,17.70
2017,05,24,10,51,8.10
2017,05,24,10,52,20.90
2017,05,24,10,53,14.50
2017,05,24,10,54,11.30
2017,05,24,10,55,11.30
2017,05,24,10,56,11.30
2017,05,24,10,57,12.90
2017,05,24,10,58,16.10
2017,05,24,10,59,12.90
2017,05,24,11,00,16.10
2017,05,24,11,01,12.90
2017,05,24,11,02,12.90
2017,05,24,11,03,14.50
2017,05,24,11,04,17.70
2017,05,24,11,05,14.50
2017,05,24,11,06,11.30
2017,05,24,11,07,16.10
2017,05,24,11,08,12.90
2017,05,24,11,09,11.30
2017,05,24,11,10,12.90
2017,05,24,11,11,12.90
2017,05,24,11,12,12.90
2017,05,24,11,13,19.30
2017,05,24,11,14,8.10
2017,05,24,11,15,9.60
2017,05,24,11,16,20.90
2017,05,24,11,17,17.70
2017,05,24,11,18,12.90
2017,05,24,11,19,8.10
2017,05,24,11,20,17.70
2017,05,24,11,21,12.90
2017,05,24,11,22,9.60
2017,05,24,11,23,9.60
2017,05,24,11,24,14.50
2017,05,24,11,25,9.60
2017,05,24,11,26,8.10
2017,05,24,11,27,9.60
2017,05,24,11,28,17.70
2017,05,24,11,29,9.60
2017,05,24,11,30,9.60
2017,05,24,11,31,11.30
2017,05,24,11,32,16.10
2017,05,24,11,33,16.10
2017,05,24,11,34,16.10
2017,05,24,11,35,11.30
2017,05,24,11,36,6.40
2017,05,24,11,37,11.30
2017,05,24,11,38,17.70
2017,05,24,11,39,11.30
2017,05,24,11,40,11.30
2017,05,24,11,41,8.10
2017,05,24,11,42,9.60
2017,05,24,11,43,12.90
2017,05,24,11,44,12.90
2017,05,24,11,45,16.10
2017,05,24,11,46,14.50
2017,05,24,11,47,11.30
2017,05,24,11,48,12.90
2017,05,24,11,49,20.90
2017,05,24,11,50,20.90
2017,05,24,11,51,19.30
2017,05,24,11,52,25.70
2017,05,24,11,53,14.50
2017,05,24,11,54,22.50
2017,05,24,11,55,22.50
2017,05,24,11,56,24.20
2017,05,24,11,57,19.30
2017,05,24,11,58,20.90
2017,05,24,11,59,11.30
2017,05,24,12,00,14.50
2017,05,24,12,01,14.50
2017,05,24,12,02,9.60
2017,05,24,12,03,11.30
2017,05,24,12,04,11.30
2017,05,24,12,05,12.90
2017,05,24,12,06,6.40
2017,05,24,12,07,6.40
2017,05,24,12,08,12.90
2017,05,24,12,09,14.50
2017,05,24,12,10,9.60
2017,05,24,12,11,8.10
2017,05,24,12,12,12.90
2017,05,24,12,13,16.10
2017,05,24,12,14,17.70
2017,05,24,12,15,19.30
2017,05,24,12,16,14.50
2017,05,24,12,17,24.20
2017,05,24,12,18,12.90
2017,05,24,12,19,12.90
2017,05,24,12,20,20.90
2017,05,24,12,21,24.20
2017,05,24,12,22,14.50
2017,05,24,12,23,25.70
2017,05,24,12,24,25.70
2017,05,24,12,25,25.70
2017,05,24,12,26,14.50
2017,05,24,12,27,12.90
2017,05,24,12,28,14.50
2017,05,24,12,29,12.90
2017,05,24,12,30,20.90
2017,05,24,12,31,17.70
2017,05,24,12,32,16.10
2017,05,24,12,33,20.90
2017,05,24,12,34,17.70
2017,05,24,12,35,24.20
2017,05,24,12,36,17.70
2017,05,24,12,37,12.90
2017,05,24,12,38,19.30
2017,05,24,12,39,22.50
2017,05,24,12,40,19.30
2017,05,24,12,41,20.90
2017,05,24,12,42,22.50
2017,05,24,12,43,17.70
2017,05,24,12,44,14.50
2017,05,24,12,45,17.70
2017,05,24,12,46,20.90
2017,05,24,12,47,12.90
2017,05,24,12,48,14.50
2017,05,24,12,49,11.30
2017,05,24,12,50,8.10
2017,05,24,12,51,11.30
2017,05,24,12,52,17.70
2017,05,24,12,53,12.90
2017,05,24,12,54,14.50
2017,05,24,12,55,14.50
2017,05,24,12,56,20.90
2017,05,24,12,57,29.00
2017,05,24,12,58,17.70
2017,05,24,12,59,12.90
2017,05,24,13,00,9.60
2017,05,24,13,01,11.30
2017,05,24,13,02,14.50
2017,05,24,13,03,9.60
2017,05,24,13,04,11.30
2017,05,24,13,05,22.50
2017,05,24,13,06,14.50
2017,05,24,13,07,17.70
2017,05,24,13,08,16.10
2017,05,24,13,09,19.30
2017,05,24,13,10,9.60
2017,05,24,13,11,12.90
2017,05,24,13,12,17.70
2017,05,24,13,13,8.10
2017,05,24,13,14,24.20
2017,05,24,13,15,22.50
2017,05,24,13,16,17.70
2017,05,24,13,17,11.30
2017,05,24,13,18,14.50
2017,05,24,13,19,12.90
2017,05,24,13,20,9.60
2017,05,24,13,21,11.30
2017,05,24,13,22,16.10
2017,05,24,13,23,24.20
2017,05,24,13,24,24.20
2017,05,24,13,25,17.70
2017,05,24,13,26,20.90
2017,05,24,13,27,22.50
2017,05,24,13,28,24.20
2017,05,24,13,29,17.70
2017,05,24,13,30,22.50
2017,05,24,13,31,22.50
2017,05,24,13,32,25.70
2017,05,24,13,33,30.60
2017,05,24,13,34,19.30
2017,05,24,13,35,14.50
2017,05,24,13,36,24.20
2017,05,24,13,37,20.90
2017,05,24,13,38,20.90
2017,05,24,13,39,11.30
2017,05,24,13,40,9.60
2017,05,24,13,41,19.30
2017,05,24,13,42,20.90
2017,05,24,13,43,22.50
2017,05,24,13,44,12.90
2017,05,24,13,45,17.70
2017,05,24,13,46,17.70
2017,05,24,13,47,12.90
2017,05,24,13,48,14.50
2017,05,24,13,49,16.10
2017,05,24,13,50,20.90
2017,05,24,13,51,17.70
2017,05,24,13,52,12.90
2017,05,24,13,53,14.50
2017,05,24,13,54,11.30
2017,05,24,13,55,11.30
2017,05,24,13,56,16.10
2017,05,24,13,57,12.90
2017,05,24,13,58,22.50
2017,05,24,13,59,14.50
2017,05,24,14,00,9.60
2017,05,24,14,01,16.10
2017,05,24,14,02,12.90
2017,05,24,14,03,12.90
2017,05,24,14,04,12.90
2017,05,24,14,05,6.40
2017,05,24,14,06,19.30
2017,05,24,14,07,16.10
2017,05,24,14,08,17.70
2017,05,24,14,09,16.10
2017,05,24,14,10,8.10
2017,05,24,14,11,8.10
2017,05,24,14,12,11.30
2017,05,24,14,13,19.30
2017,05,24,14,14,11.30
2017,05,24,14,15,12.90
2017,05,24,14,16,11.30
2017,05,24,14,17,11.30
2017,05,24,14,18,17.70
2017,05,24,14,19,17.70
2017,05,24,14,20,16.10
2017,05,24,14,21,16.10
2017,05,24,14,22,9.60
2017,05,24,14,23,19.30
2017,05,24,14,24,20.90
2017,05,24,14,25,17.70
2017,05,24,14,26,16.10
2017,05,24,14,27,12.90
2017,05,24,14,28,11.30
2017,05,24,14,29,9.60
2017,05,24,14,30,12.90
2017,05,24,14,31,11.30
2017,05,24,14,32,9.60
2017,05,24,14,33,14.50
2017,05,24,14,34,12.90
2017,05,24,14,35,6.40
2017,05,24,14,36,9.60
2017,05,24,14,37,14.50
2017,05,24,14,38,11.30
2017,05,24,14,39,19.30
2017,05,24,14,40,16.10
2017,05,24,14,41,14.50
2017,05,24,14,42,12.90
2017,05,24,14,43,11.30
2017,05,24,14,44,17.70
2017,05,24,14,45,20.90
2017,05,24,14,46,16.10
2017,05,24,14,47,12.90
2017,05,24,14,48,14.50
2017,05,24,14,49,16.10
2017,05,24,14,50,14.50
2017,05,24,14,51,19.30
2017,05,24,14,52,17.70
2017,05,24,14,53,12.90
2017,05,24,14,54,12.90
2017,05,24,14,55,11.30
2017,05,24,14,56,16.10
2017,05,24,14,57,11.30
2017,05,24,14,58,16.10
2017,05,24,14,59,11.30
2017,05,24,15,00,8.10
2017,05,24,15,01,3.20
2017,05,24,15,02,9.60
2017,05,24,15,03,6.40
2017,05,24,15,04,8.10
2017,05,24,15,05,6.40
2017,05,24,15,06,11.30
2017,05,24,15,07,8.10
2017,05,24,15,08,11.30
2017,05,24,15,09,11.30
2017,05,24,15,10,8.10
2017,05,24,15,11,8.10
2017,05,24,15,12,9.60
2017,05,24,15,13,11.30
2017,05,24,15,14,6.40
2017,05,24,15,15,9.60
2017,05,24,15,16,6.40
2017,05,24,15,17,4.80
2017,05,24,15,18,8.10
2017,05,24,15,19,9.60
2017,05,24,15,20,9.60
2017,05,24,15,21,12.90
2017,05,24,15,22,9.60
2017,05,24,15,23,8.10
2017,05,24,15,24,8.10
2017,05,24,15,25,8.10
2017,05,24,15,26,8.10
2017,05,24,15,27,11.30
2017,05,24,15,28,6.40
2017,05,24,15,29,8.10
2017,05,24,15,30,6.40
2017,05,24,15,31,9.60
2017,05,24,15,32,8.10
2017,05,24,15,33,4.80
2017,05,24,15,34,4.80
2017,05,24,15,35,8.10
2017,05,24,15,36,8.10
2017,05,24,15,37,9.60
2017,05,24,15,38,9.60
2017,05,24,15,39,6.40
2017,05,24,15,40,8.10
2017,05,24,15,41,9.60
2017,05,24,15,42,8.10
2017,05,24,15,43,8.10
2017,05,24,15,44,4.80
2017,05,24,15,45,9.60
2017,05,24,15,46,6.40
2017,05,24,15,47,9.60
2017,05,24,15,48,9.60
2017,05,24,15,49,6.40
2017,05,24,15,50,9.60
2017,05,24,15,51,8.10
2017,05,24,15,52,9.60
2017,05,24,15,53,8.10
2017,05,24,15,54,4.80
2017,05,24,15,55,16.10
2017,05,24,15,56,16.10
2017,05,24,15,57,11.30
2017,05,24,15,58,9.60
2017,05,24,15,59,6.40
2017,05,24,16,00,6.40
2017,05,24,16,01,11.30
2017,05,24,16,02,11.30
2017,05,24,16,03,8.10
2017,05,24,16,04,8.10
2017,05,24,16,05,11.30
2017,05,24,16,06,11.30
2017,05,24,16,07,12.90
2017,05,24,16,08,11.30
2017,05,24,16,09,11.30
2017,05,24,16,10,6.40
2017,05,24,16,11,9.60
2017,05,24,16,12,6.40
2017,05,24,16,13,8.10
2017,05,24,16,14,8.10
2017,05,24,16,15,11.30
2017,05,24,16,16,11.30
2017,05,24,16,17,9.60
2017,05,24,16,18,14.50
2017,05,24,16,19,14.50
2017,05,24,16,20,8.10
2017,05,24,16,21,8.10
2017,05,24,16,22,4.80
2017,05,24,16,23,11.30
2017,05,24,16,24,4.80
2017,05,24,16,25,3.20
2017,05,24,16,26,4.80
2017,05,24,16,27,9.60
2017,05,24,16,28,6.40
2017,05,24,16,29,4.80
2017,05,24,16,30,4.80
2017,05,24,16,31,8.10
2017,05,24,16,32,4.80
2017,05,24,16,33,11.30
2017,05,24,16,34,6.40
2017,05,24,16,35,12.90
2017,05,24,16,36,12.90
2017,05,24,16,37,8.10
2017,05,24,16,38,3.20
2017,05,24,16,39,3.20
2017,05,24,16,40,6.40
2017,05,24,16,41,3.20
2017,05,24,16,42,6.40
2017,05,24,16,43,8.10
2017,05,24,16,44,9.60
2017,05,24,16,45,4.80
2017,05,24,16,46,8.10
2017,05,24,16,47,14.50
2017,05,24,16,48,11.30
2017,05,24,16,49,4.80
2017,05,24,16,50,9.60
2017,05,24,16,51,8.10
2017,05,24,16,52,8.10
2017,05,24,16,53,4.80
2017,05,24,16,54,3.20
2017,05,24,16,55,6.40
2017,05,24,16,56,3.20
2017,05,24,16,57,6.40
2017,05,24,16,58,6.40
2017,05,24,17,00,4.80
2017,05,24,17,01,3.20
2017,05,24,17,02,3.20
2017,05,24,17,03,3.20
2017,05,24,17,04,6.40
2017,05,24,17,05,4.80
2017,05,24,17,06,12.90
2017,05,24,17,07,9.60
2017,05,24,17,08,9.60
2017,05,24,17,09,6.40
2017,05,24,17,10,4.80
2017,05,24,17,11,6.40
2017,05,24,17,12,8.10
2017,05,24,17,13,4.80
2017,05,24,17,14,8.10
2017,05,24,17,15,3.20
2017,05,24,17,16,4.80
2017,05,24,17,17,11.30
2017,05,24,17,18,8.10
2017,05,24,17,19,4.80
2017,05,24,17,21,3.20
2017,05,24,17,22,3.20
2017,05,24,17,23,1.60
2017,05,24,17,24,3.20
2017,05,24,17,25,6.40
2017,05,24,17,26,6.40
2017,05,24,17,27,6.40
2017,05,24,17,28,8.10
2017,05,24,17,29,4.80
2017,05,24,17,30,11.30
2017,05,24,17,31,12.90
2017,05,24,17,32,12.90
2017,05,24,17,33,11.30
2017,05,24,17,34,3.20
2017,05,24,17,35,6.40
2017,05,24,17,36,8.10
2017,05,24,17,37,4.80
2017,05,24,17,38,1.60
2017,05,24,17,40,3.20
2017,05,24,17,41,4.80